{"data":{"norad_id":53522,"intl_designator":"2022-100A","name":"YAOGAN-35 04A","alt_names":[],"object_type":"PAYLOAD","status":"ACTIVE","operator":null,"country":"PRC","launch_date":"2022-08-19","launch_site_code":"XICLF","launch_vehicle":null,"mission":null,"orbit_class":"UNKNOWN","rcs_meters":null,"size_class":null,"mass_kg":null,"dimensions":null,"purposes":[],"wikipedia_slug":null,"has_3d_model":false,"image_url":null,"decayed_at":null,"tle_current":{"epoch":"2026-09-20T22:58:40.225728Z","epoch_age_seconds":104119,"freshness":"FRESH","line1":"1 53522U 22100A   26263.95741002  .00006056  00000+0  25319-3 0  9998","line2":"2 53522  35.0089 169.5842 0006964  52.9474 307.1877 15.22919349227879","mean_motion":15.22919349,"eccentricity":0.0006964,"inclination_deg":35.0089,"raan_deg":169.5842,"arg_perigee_deg":52.9474,"mean_anomaly_deg":307.1877,"bstar":0.00025319,"rev_number":22787,"period_min":94.555237015378,"perigee_km":492.25246710592,"apogee_km":501.82821410592,"semimajor_km":6875.1773406059,"source":"CELESTRAK","updated_at":"2026-09-21T09:00:09.084086Z"}}}